Location: *
(44.5667°S, 169.2833°W)
Time: 04:05:44
(UTC+00:00)

Daily predictions for brighter satellites

Satellite Brightness Start Highest point End
(mag) Time Altitude Azimuth Time Altitude Azimuth Time Altitude Azimuth
RESURS DK-1 4.3 04:19:26 10° SSE 04:21:15 12° SE 04:23:03 10° ESE
Cosmos 1656 3.7 04:16:29 10° SSW 04:22:16 76° ESE 04:28:00 10° NNE
USA 306 4.0 04:18:44 10° SW 04:22:24 27° SSE 04:26:03 10° ESE
CZ-2C R/B 3.8 04:17:24 10° N 04:22:52 52° W 04:28:21 10° SSW
Cosmos 1633 4.2 04:20:01 10° NW 04:23:15 34° WSW 04:26:32 10° S
USA 307 4.1 04:22:16 10° SW 04:25:54 27° SSE 04:29:32 10° ESE
USA 281 4.5 04:21:19 10° SE 04:26:05 20° E 04:30:48 10° NE
Landsat 5 4.5 04:28:25 10° NE 04:32:15 29° ESE 04:36:03 10° S
[s.n.52708] 4.3 04:38:05 10° W 04:40:37 25° SSW 04:43:02 11° SE
[s.n.52707] 4.3 04:38:12 10° W 04:40:44 25° SSW 04:43:09 11° SE
[s.n.52703] 4.3 04:38:19 10° W 04:40:51 25° SSW 04:43:16 11° SE
[s.n.52705] 4.3 04:38:26 10° W 04:40:58 25° SSW 04:43:22 11° SE
[s.n.52706] 4.3 04:38:33 10° W 04:41:04 25° SSW 04:43:28 11° SE
[s.n.52701] 4.3 04:38:40 10° W 04:41:11 25° SSW 04:43:35 11° SE
USA 215 3.3 04:34:45 10° ENE 04:41:16 64° SSE 04:47:48 10° SW
[s.n.52704] 4.3 04:38:46 10° W 04:41:18 25° SSW 04:43:41 11° SE
[s.n.52699] 4.3 04:38:53 10° W 04:41:24 25° SSW 04:43:47 11° SE
[s.n.52702] 4.3 04:39:00 10° W 04:41:31 25° SSW 04:43:54 11° SE
[s.n.52697] 4.3 04:39:07 10° W 04:41:39 25° SSW 04:44:01 11° SE
[s.n.52700] 4.3 04:39:13 10° W 04:41:45 25° SSW 04:44:07 11° SE
[s.n.52695] 4.3 04:39:21 10° W 04:41:52 25° SSW 04:44:14 11° SE
[s.n.52698] 4.3 04:39:28 10° W 04:41:58 25° SSW 04:44:20 11° SE
[s.n.52693] 4.3 04:39:34 10° W 04:42:06 25° SSW 04:44:27 11° SE
[s.n.52696] 4.3 04:39:41 10° W 04:42:12 25° SSW 04:44:33 11° SE
[s.n.52691] 4.3 04:39:48 10° W 04:42:19 25° SSW 04:44:40 11° SE
[s.n.52689] 4.4 04:39:55 10° W 04:42:26 25° SSW 04:44:47 11° SE
[s.n.52694] 4.4 04:40:01 10° W 04:42:33 25° SSW 04:44:53 11° SE
[s.n.52692] 4.4 04:40:09 10° W 04:42:40 25° SSW 04:45:00 11° SE
[s.n.52687] 4.4 04:40:16 10° W 04:42:47 25° SSW 04:45:06 11° SE
[s.n.52685] 4.4 04:40:22 10° W 04:42:53 25° SSW 04:45:13 11° SE
[s.n.52690] 4.4 04:40:29 10° W 04:43:00 25° SSW 04:45:19 11° SE
[s.n.52688] 4.4 04:40:36 10° W 04:43:07 25° SSW 04:45:26 11° SE
[s.n.52683] 4.4 04:40:43 10° W 04:43:14 25° SSW 04:45:33 11° SE
[s.n.52686] 4.4 04:40:50 10° W 04:43:21 25° SSW 04:45:39 11° SE
[s.n.52681] 4.4 04:40:58 10° WSW 04:43:28 25° SSW 04:45:46 11° SE
[s.n.52679] 4.4 04:41:04 10° W 04:43:35 25° SSW 04:45:53 11° SE
[s.n.52684] 4.4 04:41:11 10° WSW 04:43:42 25° SSW 04:46:00 11° SE
[s.n.52682] 4.4 04:41:18 10° WSW 04:43:49 25° SSW 04:46:06 11° SE
[s.n.52677] 4.4 04:41:25 10° WSW 04:43:56 25° SSW 04:46:13 11° SE
[s.n.52680] 4.4 04:41:32 10° WSW 04:44:04 25° SSW 04:46:20 11° SE
[s.n.52675] 4.4 04:41:39 10° WSW 04:44:10 25° SSW 04:46:26 12° SE
Cosmos 1076 Rocket 4.0 04:40:03 10° NNE 04:44:11 41° E 04:48:20 10° SSE
[s.n.52678] 4.4 04:41:46 10° WSW 04:44:17 25° SSW 04:46:33 12° SE
[s.n.52673] 4.4 04:41:55 10° WSW 04:44:25 25° SSW 04:46:40 12° SE
[s.n.52676] 4.4 04:42:00 10° WSW 04:44:31 25° SSW 04:46:47 12° SE
[s.n.52671] 4.4 04:42:08 10° WSW 04:44:39 25° SSW 04:46:54 12° SE
[s.n.52669] 4.4 04:42:14 10° WSW 04:44:45 25° SSW 04:47:00 12° SE
Cosmos 1980 Rocket 2.9 04:39:46 10° S 04:44:47 31° SE 04:49:45 10° ENE
[s.n.52674] 4.4 04:42:22 10° WSW 04:44:52 25° SSW 04:47:07 12° SE
Cosmos 1812 4.0 04:41:57 10° SSE 04:44:53 20° ESE 04:47:46 10° ENE
[s.n.52672] 4.4 04:42:28 10° WSW 04:44:58 24° SSW 04:47:13 12° SE
[s.n.52667] 4.4 04:42:36 10° WSW 04:45:07 24° SSW 04:47:21 12° SE
[s.n.52665] 4.4 04:42:43 10° WSW 04:45:14 24° SSW 04:47:28 12° SE
[s.n.52670] 4.4 04:42:51 10° WSW 04:45:21 24° SSW 04:47:35 12° SE
[s.n.52668] 4.4 04:42:58 10° WSW 04:45:29 24° SSW 04:47:41 12° SE
[s.n.52666] 4.4 04:43:05 10° WSW 04:45:35 24° SSW 04:47:48 12° SE
Cosmos 1842 Rocket 3.6 04:41:12 10° S 04:45:41 60° E 04:50:04 10° NNE
[s.n.52663] 4.4 04:43:12 10° WSW 04:45:42 24° SSW 04:47:55 12° SE
[s.n.52662] 4.4 04:43:19 10° WSW 04:45:49 24° SSW 04:48:02 12° SE
[s.n.52664] 4.4 04:43:26 10° WSW 04:45:56 24° SSW 04:48:09 12° SE
[s.n.52661] 4.4 04:43:34 10° WSW 04:46:04 24° SSW 04:48:16 12° SE
[s.n.52660] 4.4 04:43:41 10° WSW 04:46:11 24° SSW 04:48:23 12° SE
[s.n.52656] 4.4 04:43:48 10° WSW 04:46:18 24° SSW 04:48:29 12° SE
[s.n.52658] 4.4 04:43:56 10° WSW 04:46:25 24° SSW 04:48:37 12° SE
[s.n.52659] 4.4 04:44:02 10° WSW 04:46:33 24° SSW 04:48:43 12° SE
[s.n.52657] 4.4 04:44:10 10° WSW 04:46:40 24° SSW 04:48:51 12° SE
SKYMED 2 4.2 04:42:20 10° N 04:46:41 63° W 04:51:06 10° SSW
H-2A R/B 4.4 04:46:19 10° S 04:49:52 35° WSW 04:53:24 10° NW
Cosmos 2322 Rocket 4.1 04:50:13 10° SSE 04:51:09 10° SE 04:51:57 10° SE
Cosmos 2369 4.1 04:47:36 10° SSW 04:53:01 41° SE 04:58:21 10° NE
Cosmos 1340 Rocket 2.8 04:49:28 10° N 04:53:28 71° E 04:57:35 10° SSE
SJ 16-02 3.5 04:52:53 10° SE 04:52:54 10° SE 04:52:54 10° SE
Cosmos 2082 Rocket 2.9 04:49:47 10° NNE 04:54:44 33° ENE 04:59:05 13° SE
USA 308 3.7 04:52:55 10° SW 04:56:47 33° SSE 04:59:17 18° ESE
Cosmos 2221 2.7 04:52:40 10° S 04:57:09 79° W 05:01:34 10° N
CBERS 1 LM4 rocket 4.3 04:53:01 10° SSE 04:57:51 73° ENE 05:02:44 10° N
SMAP 3.9 04:54:08 10° SE 04:58:19 30° E 05:02:25 10° NNE
Cosmos 1302 Rocket 4.0 04:55:53 10° NNW 05:01:07 87° ENE 05:06:27 10° SSE
H-2A R/B 4.3 05:04:51 10° SSE 05:04:51 10° SSE 05:04:56 10° SSE
Cosmos 1697 Rocket 2.6 04:58:30 10° SSW 05:04:14 79° ESE 05:09:55 10° NNE
Cosmos 1000 Rocket 4.4 05:00:53 10° N 05:06:59 67° E 05:13:12 10° SSE
Cosmos 2360 4.2 05:01:43 10° SSW 05:07:31 81° ESE 05:13:14 10° NNE
GENESIS II 4.4 05:04:22 10° SSW 05:07:58 42° SE 05:10:30 17° ENE
Meteor 1-31 Rocket 3.5 05:07:12 10° S 05:11:09 57° WSW 05:15:01 10° NNW
CZ-2C R/B 4.1 05:07:37 10° S 05:12:10 42° WSW 05:16:47 10° NW
Cosmos 1486 Rocket 4.2 05:09:36 10° SSW 05:14:52 51° ESE 05:20:04 10° NE
Cosmos 1939 Rocket 2.8 05:14:50 10° S 05:18:47 84° WSW 05:22:40 10° NNW
Lacrosse 5 3.4 05:15:51 10° SW 05:19:46 21° S 05:21:34 18° SE
Cosmos 1933 3.3 05:16:07 10° S 05:20:14 90° W 05:24:19 10° N
USA 305 3.2 05:16:14 10° SW 05:20:21 46° SSE 05:21:57 31° E
Cosmos 1992 Rocket 4.0 05:16:04 10° N 05:21:13 59° ENE 05:25:25 16° SSE
Cosmos 1782 2.7 05:18:51 10° S 05:22:53 74° E 05:26:51 10° NNE
CORIOLIS 4.4 05:19:40 10° SSE 05:25:00 47° E 05:30:17 10° N
COSMOS 2406 3.2 05:21:28 10° NNW 05:27:10 85° ENE 05:32:11 14° SSE
SL-16 R/B 3.4 05:26:47 10° S 05:30:51 22° SE 05:30:51 22° SE
Cosmos 2173 Rocket 4.2 05:25:32 10° S 05:31:58 79° W 05:38:15 10° N
BREEZE M DEB (TANK) 1.7 05:30:12 10° WNW 05:32:09 71° NNE 05:32:09 71° NNE
Lacrosse 5 rocket 3.3 05:30:57 10° SSW 05:33:13 14° S 05:33:30 14° S
Cosmos 2016 Rocket 3.9 05:27:32 10° S 05:33:49 72° E 05:40:06 10° NNE
Cosmos 724 4.5 05:27:45 10° NW 05:33:54 80° SW 05:38:44 18° SSE
CZ-4B R/B 2.5 05:33:55 27° SSE 05:35:50 73° ENE 05:39:40 10° N
Lacrosse 4 Rocket 4.2 05:35:49 10° SW 05:37:14 11° SW 05:38:39 10° SSW
Cosmos 2233 Rocket 4.1 05:35:27 10° S 05:41:35 50° ESE 05:47:41 10° NNE
Cosmos 1503 Rocket 4.0 05:39:02 10° SSW 05:44:10 53° ESE 05:46:48 27° NE
Cosmos 1802 Rocket 4.2 05:38:42 10° S 05:45:11 81° W 05:51:40 10° N
Cosmos 1864 Rocket 4.4 05:41:01 10° S 05:47:15 85° E 05:53:25 10° N
Meteor 2-3 Rocket 4.4 05:42:01 10° NNW 05:47:32 55° WSW 05:53:10 10° S
Cosmos 1833 Rocket 3.8 05:45:33 10° NW 05:50:54 42° WSW 05:56:14 10° SSE
SL-08 R/B 4.4 05:45:15 10° S 05:51:35 83° E 05:57:45 10° N
Cosmos 2278 3.7 05:46:28 10° SSW 05:52:09 61° ESE 05:54:46 31° NE
Cosmos 2151 4.0 05:48:46 10° NNW 05:52:57 48° WSW 05:57:12 10° S
Cosmos 2084 4.4 05:48:42 10° N 05:52:38 37° NE 05:52:38 37° NE
ATLAS 2AS CENTAUR R/B 3.8 05:46:24 10° SW 05:53:11 49° WNW 06:00:22 10° N
H-2A R/B 1.9 05:48:42 10° SSE 05:53:45 85° WSW 05:58:42 10° NNW
CZ-4B DEB 4.4 05:53:33 44° E 05:54:04 46° E 05:59:20 10° N
ADEOS 4.2 05:51:08 10° S 05:56:20 56° WSW 06:01:27 10° NNW
Cosmos 2360 Rocket 4.1 05:53:11 10° S 05:54:40 14° SSE 05:54:40 14° SSE
RESURS DK-1 2.2 05:55:40 10° SSW 05:59:54 89° ESE 06:00:20 71° NNE
USA 306 2.8 05:58:13 10° SW 06:02:19 79° S 06:02:19 79° S
USA 307 3.0 06:01:48 10° SW 06:05:36 67° SSW 06:05:36 67° SSW
SJ-11-01 4.5 06:08:10 54° NNE 06:08:10 54° NNE 06:12:02 10° N
CZ-2D R/B 3.8 06:06:28 42° SSW 06:07:27 58° WSW 06:11:14 10° NNW
Meteor 2-6 Rocket 4.1 06:03:48 10° S 06:09:31 89° ESE 06:15:00 10° N
GEOS 3 Rocket 3.5 06:10:34 63° ENE 06:10:54 65° NE 06:16:06 10° NNW
CZ-2C R/B 3.4 06:08:56 10° NNW 06:10:14 14° N 06:10:14 14° N
USA 281 3.3 06:05:45 16° SSE 06:11:12 80° WSW 06:17:50 10° NNW
Cosmos 1862 4.2 06:20:02 10° NNW 06:23:27 48° WNW 06:23:27 48° WNW
USA 215 4.2 06:18:11 10° NNE 06:24:25 44° NW 06:30:43 10° WSW
ATLAS 3B CENTAUR R/B 4.3 06:19:41 10° WNW 06:26:08 21° NNW 06:28:41 17° NNE
ARGOS 3.2 06:27:22 52° S 06:28:45 79° WSW 06:34:09 10° NNW
Cosmos 1980 Rocket 3.2 06:23:35 10° SW 06:28:55 44° WNW 06:34:12 10° N
SJ 16-02 3.5 06:28:51 10° SSW 06:29:55 17° SSW 06:29:55 17° SSW
USA 308 4.3 06:32:27 10° WSW 06:35:04 36° WSW 06:35:04 36° WSW
Cosmos 2322 Rocket 3.7 06:31:16 10° SSW 06:33:47 25° S 06:33:47 25° S
Cosmos 2082 Rocket 3.3 06:33:23 10° NW 06:38:41 41° WSW 06:40:57 28° S
Cosmos 2333 Rocket 4.5 06:34:44 10° S 06:35:14 12° S 06:35:14 12° S
Lacrosse 5 3.9 06:58:58 10° SW 07:00:46 21° SSW 07:00:46 21° SSW
SL-16 R/B 3.8 07:10:11 10° SSW 07:12:45 27° SW 07:12:45 27° SW
